Location: Alsip
(41.6689°N, 87.7387°W)
Time: 15:17:38
(UTC+00:00)

Gbstr 26 Del rocket - Pass Details

Date: 14 July 2020
Orbit: 492 x 1264 km, 51.8° (Epoch: 13 August)

Event Time Altitude Azimuth Distance (km) Brightness Sun altitude
Rises 08:29:56 0° 306° (NW) 2,713 6.4 -17.5°
Reaches altitude 10° 08:32:01 10° 310° (NW) 1,885 5.6 -17.3°
Maximum altitude 08:36:15 66° 33° (NNE) 710 3.5 -16.8°
Drops below altitude 10° 08:41:25 10° 115° (ESE) 2,285 6.1 -16.2°
Sets 08:44:09 0° 119° (ESE) 3,347 7.0 -15.9°
